Tracking 28081 objects as of 27-Sep-2023
HD Live streaming from Space Station
objects crossing your sky now

WESTPAC

Track WESTPAC now!
10-day predictions
WESTPAC is classified as:


NORAD ID: 25398
Int'l Code: 1998-043E
Perigee: 821.6 km
Apogee: 823.8 km
Inclination: 98.9 °
Period: 101.2 minutes
Semi major axis: 7193 km
RCS: 0.165 m2 (medium)
Launch date: July 10, 1998
Source: Australia (AUS)
Launch site: TYURATAM MISSILE AND SPACE COMPLEX (TTMTR)
Your satellite tracking list
Your tracking list is empty




NASA's NSSDC Master Catalog

Two Line Element Set (TLE):
1 25398U 98043E   23269.88676016  .00000036  00000-0  35986-4 0  9999
2 25398  98.8747 223.8029 0001551 146.3994 213.7282 14.22906260309533
Source of the keplerian elements: AFSPC